Location: Go?cza
(50.3372°N, 19.9313°E)
Time: 23:22:43
(UTC+00:00)

Cosmos 2322 Rocket - Pass Details

Date: 23 May 2024
Orbit: 832 x 850 km, 71.0° (Epoch: 22 June)

Event Time Altitude Azimuth Distance (km) Brightness Sun altitude
Rises 00:51:48 0° 329° (NNW) 3,401 5.7 -13.0°
Reaches altitude 10° 00:54:15 10° 328° (NNW) 2,465 5.0 -12.8°
Maximum altitude 00:59:53 72° 245° (WSW) 886 2.2 -12.3°
Drops below altitude 10° 01:05:31 10° 162° (SSE) 2,462 4.3 -11.8°
Sets 01:07:57 0° 160° (SSE) 3,395 5.0 -11.6°
